Regional Weather Roundup
Issued by NWS

Home | Current Version | Previous Version | Graphics & Text | Print | Product List | Glossary On
Versions: 1 2 3 4 5 6 7 8 9 10 11 12 13 14 15 16 17 18 19 20 21 22 23 24 25 26 27 28 29 30 31 32 33 34 35 36 37 38 39 40 41 42 43 44 45 46 47 48 49 50
000
ASUS43 KOAX 190402
RWRNE

WEATHER ROUNDUP FOR NEBRASKA
NATIONAL WEATHER SERVICE OMAHA NE
1000 PM CST THU DEC 18 2014

NOTES: SATELLITE DATA IS BEING USED TO AUGMENT CLOUD COVER ABOVE
       12000 FEET.
       "FAIR" INDICATES FEW OR NO CLOUDS BELOW 12,000 FEET WITH NO
       SIGNIFICANT WEATHER AND/OR OBSTRUCTIONS TO VISIBILITY.

  * THESE STATIONS DO NOT REPORT WEATHER SUCH AS RAIN...SNOW OR FOG.

NEZ001>004-019>022-054>056-190500-
NEBRASKA PANHANDLE

CITY           SKY/WX    TMP DP  RH WIND       PRES   REMARKS
SCOTTSBLUFF    CLOUDY    12   8  84 NE3       30.08S
ALLIANCE       MOCLDY    11   8  88 W8        30.06S WCI  -1
CHADRON        PTCLDY    24  17  74 SW12      30.07R WCI  13
SIDNEY         CLOUDY    26  19  74 W9        30.09R WCI  17
$$

NEZ057>060-069>072-079>082-190500-
SOUTHWEST NEBRASKA

CITY           SKY/WX    TMP DP  RH WIND       PRES   REMARKS
NORTH PLATTE   FOG       21  20  96 SW5       30.12S VSB 1/4 WCI  15
IMPERIAL       PTCLDY    18  16  92 CALM      30.11R FOG
MCCOOK         CLOUDY    28  26  92 SW6       30.15R FOG     WCI  22
$$

NEZ005>010-023>029-035>040-094-190500-
NORTH CENTRAL NEBRASKA

CITY           SKY/WX    TMP DP  RH WIND       PRES   REMARKS
VALENTINE      MOCLDY    12  10  92 SW5       30.08R FOG     WCI   4
BROKEN BOW     CLOUDY    28  26  92 SW9       30.12R FOG     WCI  19
$$

NEZ041-046>049-061>064-073>077-083>087-190500-
SOUTH CENTRAL NEBRASKA

CITY           SKY/WX    TMP DP  RH WIND       PRES   REMARKS
GRAND ISLAND   CLOUDY    29  24  82 SW8       30.19R WCI  21
HASTINGS       CLOUDY    30  24  78 SW6       30.17S WCI  24
KEARNEY *      CLOUDY    28  25  86 SW6       30.17R WCI  22
$$

NEZ011>018-030>034-042>045-190500-
NORTHEAST NEBRASKA

CITY           SKY/WX    TMP DP  RH WIND       PRES   REMARKS
NORFOLK        CLOUDY    29  25  85 S6        30.18R WCI  23
BLAIR          CLOUDY    31  27  86 S7        30.21R WCI  24
COLUMBUS *     CLOUDY    28  23  80 S6        30.21S WCI  22
TEKAMAH        CLOUDY    31  27  85 SE6       30.23R WCI  25
$$

NEZ050>053-065>068-078-088>093-190500-
SOUTHEAST NEBRASKA

CITY           SKY/WX    TMP DP  RH WIND       PRES   REMARKS
LINCOLN        CLOUDY    31  28  89 S7        30.24R WCI  24
OMAHA EPPLEY   CLOUDY    31  27  85 S7        30.25S WCI  24
FALLS CITY     CLOUDY    30  27  88 CALM      30.25R
$$

NEZ044-045-051>053-067-190500-
OMAHA AREA

CITY           SKY/WX    TMP DP  RH WIND       PRES   REMARKS
OMAHA EPPLEY   CLOUDY    31  27  85 S7        30.25S WCI  24
BLAIR          CLOUDY    31  27  86 S7        30.21R WCI  24
OFFUTT AFB     CLOUDY    30  27  89 SE7       30.24R WCI  23
$$


USA.gov is the U.S. government's official web portal to all federal, state and local government web resources and services.